Airport details for: LRCK (Romania)

Metar

LRCK 230930Z 31004KT 260V010 9999 FEW023 14/07 Q1009 NOSIG

General details

ICAO: LRCK
IATA: CND
Name (city): Mihail Kogalniceanu
Major:
Country: Romania
vACC: vACC Romania
Description:

Constanta - Mihail Kogalniceanu

Scenery links:
FS9 scenery: Download
FSX/P3D scenery: Download
XP scenery: Download
Elevation: 353 ft.
Transition altitude: 3000 ft.
MSA: 11400 ft.
Latitude: 44.362222
Longitude: 28.488333
LRCK Charts
LRCK Notams
LRCK Online stations

Runways

Number Course Length Elevation Lat Lon ILS ILS freq ILS FAC GP
18 181° 11483ft / 3500 m 353ft 44.377789 28.490592 - - 3.0°
36 11483ft / 3500 m 315ft 44.346445 28.486314 110.3 2.5°